Hillsboro, OR

3:16 PM PDT on July 29, 2016 (GMT -0700)
Portland-Hillsboro

Weather History for KHIO - October, 2012

Change the Weather History Date:

Monday, October 15, 2012

  Actual Average Record
Temperature  
Mean Temperature 61 °F 52 °F  
Max Temperature 64 °F 63 °F 80 °F (1961)
Min Temperature 57 °F 40 °F 29 °F (2008)
Degree Days  
Heating Degree Days 4 13  
Month to date heating degree days 137 169  
Since 1 July heating degree days 317 431  
Cooling Degree Days 0 0  
Month to date cooling degree days 0 0  
Year to date cooling degree days 232 197  
Growing Degree Days 10 (Base 50)    
Moisture  
Dew Point 58 °F    
Average Humidity 89    
Maximum Humidity 93    
Minimum Humidity 84    
Precipitation  
Precipitation 0.35 in 0.10 in 1.02 in (1947)
Month to date precipitation 1.77 1.19  
Year to date precipitation 24.26 24.70  
Snow  
Snow 0.00 in - - ()
Month to date snowfall 0.0  
Since 1 July snowfall 0.0  
Since 1 September snowfall 0.0  
Snow Depth 0.00 in    
Sea Level Pressure  
Sea Level Pressure 29.85 in    
Wind  
Wind Speed 8 mph (South)    
Max Wind Speed 18 mph    
Max Gust Speed 24 mph    
Visibility 8 miles    
Events Rain    
T = Trace of Precipitation, MM = Missing Value Source: NWS Daily Summary

Daily Weather History Graph

Daily Weather History Graph

Search for Another Location

Airport or City:

Trip Planner

Search our weather history database for the weather conditions in past years. The results will help you decide how hot, cold, wet, or windy it might be!

Date:

Astronomy

Oct. 15, 2012 Rise Set
Actual Time 7:28 AM PDT 6:25 PM PDT
Civil Twilight 6:58 AM PDT 6:55 PM PDT
Nautical Twilight 6:24 AM PDT 7:29 PM PDT
Astronomical Twilight 5:50 AM PDT 8:03 PM PDT
Moon 7:49 AM PDT (10/15) 6:24 PM PDT (10/15)
Length of Visible Light 11h 56m
Length of Day
10h 56m
New Moon, 0% of the Moon is Illuminated
Oct 15
New Moon
Oct 21
First Quarter
Oct 29
Full
Nov 6
Last Quarter
Nov 13
New

Hourly Weather History & Observations

Time (PDT) Temp. Dew Point Humidity Pressure Visibility Wind Dir Wind Speed Gust Speed Precip Events Conditions
12:35 AM 59.0 °F 57.2 °F 94% 29.94 in 10.0 mi South 4.6 mph - 0.00 in   Overcast
12:53 AM 59.0 °F 57.0 °F 93% 29.94 in 4.0 mi South 10.4 mph - 0.04 in Rain Rain
1:53 AM 59.0 °F 57.0 °F 93% 29.95 in 10.0 mi South 8.1 mph - 0.02 in   Overcast
2:53 AM 59.0 °F 55.9 °F 90% 29.95 in 10.0 mi SSW 6.9 mph - N/A   Overcast
3:53 AM 57.9 °F 55.0 °F 90% 29.95 in 10.0 mi Calm Calm - N/A   Overcast
4:53 AM 57.9 °F 55.0 °F 90% 29.95 in 10.0 mi Calm Calm - N/A   Overcast
5:53 AM 57.9 °F 55.0 °F 90% 29.96 in 10.0 mi South 3.5 mph - N/A   Overcast
6:53 AM 57.9 °F 55.0 °F 90% 29.97 in 10.0 mi SSW 4.6 mph - N/A   Overcast
7:21 AM 57.2 °F 55.4 °F 94% 29.96 in 10.0 mi South 4.6 mph - N/A   Mostly Cloudy
7:53 AM 57.9 °F 55.0 °F 90% 29.96 in 10.0 mi South 6.9 mph - N/A   Mostly Cloudy
8:30 AM 59.0 °F 55.4 °F 88% 29.97 in 10.0 mi South 4.6 mph - N/A   Overcast
8:53 AM 59.0 °F 55.9 °F 90% 29.97 in 10.0 mi South 3.5 mph - N/A   Overcast
9:12 AM 59.0 °F 55.4 °F 88% 29.97 in 10.0 mi South 3.5 mph - N/A   Overcast
9:24 AM 60.8 °F 55.4 °F 82% 29.96 in 10.0 mi South 3.5 mph - N/A   Overcast
9:53 AM 60.1 °F 57.0 °F 90% 29.95 in 10.0 mi Calm Calm - N/A   Overcast
10:00 AM 60.8 °F 57.2 °F 88% 29.95 in 10.0 mi Calm Calm - N/A   Overcast
10:53 AM 61.0 °F 57.9 °F 90% 29.94 in 10.0 mi South 6.9 mph - N/A   Overcast
11:53 AM 62.1 °F 57.9 °F 86% 29.91 in 10.0 mi SSE 9.2 mph - N/A   Overcast
12:53 PM 63.0 °F 57.9 °F 84% 29.86 in 10.0 mi SSE 10.4 mph - 0.00 in   Overcast
1:53 PM 63.0 °F 57.9 °F 84% 29.83 in 3.0 mi South 13.8 mph - 0.00 in Rain Light Rain
2:53 PM 62.1 °F 59.0 °F 90% 29.80 in 3.0 mi South 9.2 mph - 0.10 in Rain Light Rain
3:53 PM 63.0 °F 60.1 °F 90% 29.77 in 8.0 mi South 10.4 mph - 0.04 in Rain Light Rain
4:53 PM 63.0 °F 60.1 °F 90% 29.71 in 8.0 mi South 15.0 mph 24.2 mph 0.00 in   Overcast
5:48 PM 62.6 °F 60.8 °F 94% 29.72 in 2.0 mi South 9.2 mph - 0.10 in Rain Heavy Rain
5:49 PM 63.0 °F 61.0 °F 93% 29.72 in 2.0 mi South 8.1 mph 18.4 mph 0.10 in Rain Rain
6:12 PM 62.6 °F 60.8 °F 94% 29.72 in 3.0 mi South 6.9 mph - 0.05 in Rain Light Rain
6:14 PM 62.6 °F 60.8 °F 94% 29.72 in 2.5 mi South 8.1 mph - 0.05 in Rain Light Rain
6:53 PM 63.0 °F 61.0 °F 93% 29.70 in 2.5 mi South 11.5 mph - 0.06 in Rain Light Rain
7:00 PM 62.6 °F 60.8 °F 94% 29.70 in 10.0 mi South 12.7 mph - 0.00 in   Overcast
7:53 PM 63.0 °F 61.0 °F 93% 29.70 in 7.0 mi South 9.2 mph 20.7 mph 0.03 in Rain Light Rain
8:53 PM 63.0 °F 61.0 °F 93% 29.69 in 10.0 mi South 11.5 mph - 0.00 in   Overcast
9:53 PM 62.1 °F 60.1 °F 93% 29.70 in 10.0 mi South 11.5 mph - 0.00 in   Overcast
10:53 PM 62.1 °F 59.0 °F 90% 29.69 in 10.0 mi South 9.2 mph - N/A   Overcast
11:53 PM 62.1 °F 59.0 °F 90% 29.68 in 10.0 mi South 8.1 mph - N/A   Overcast